Location: Unspecified
(0.0000°N, 0.0000°E)
Time: 19:00:06
(UTC+00:00)

N. Korean satellite - Pass Details

Date: 12 December 2017
Orbit: 461 x 513 km, 97.2° (Epoch: 10 December)

Event Time Altitude Azimuth Distance (km) Brightness Sun altitude
Rises 18:48:06 0° 186° (S) 2,535 10.6 -12.4°
Reaches altitude 10° 18:50:18 10° 197° (SSW) 1,663 9.9 -12.9°
Maximum altitude 18:53:28 30° 259° (W) 895 8.7 -13.7°
Drops below altitude 10° 18:56:41 10° 322° (NW) 1,682 9.5 -14.4°
Sets 18:58:56 0° 333° (NNW) 2,571 10.3 -14.9°
